CW9809 Weather Reports


time (UTC)temp
C
wind
direction
speed
KPH
gust
KPH
rain 1hr
cm
rain 24hr
cm
rain mn
cm
humidity
%
barometer
mb
20260510224520 15 317 0.0 0.0 0.00 0.30 0.23 89 1013.9
20260510223026 15 317 0.0 0.0 0.00 0.41 0.23 90 1013.8
20260510221528 15 317 0.0 0.0 0.00 0.53 0.23 89 1013.7
20260510220015 15 321 0.0 0.0 0.00 0.61 0.23 90 1013.8
20260510214526 15 321 0.0 0.0 0.23 0.69 0.23 89 1013.7
20260510213023 15 321 0.0 0.0 0.23 0.74 0.23 89 1013.5
20260510211533 15 321 0.0 0.0 0.23 0.79 0.23 88 1013.6
20260510210028 15 331 0.0 16.1 0.23 0.79 0.23 84 1013.3
20260510204524 17 15 0.0 4.8 0.00 0.58 0.00 72 1013.1
20260510203018 17 14 0.0 16.1 0.00 0.61 0.00 74 1013.3
20260510201524 17 35 3.2 20.9 0.00 0.66 0.00 75 1013.5
20260510200025 19 223 0.0 0.0 0.00 0.74 0.00 69 1012.8
20260510194527 20 155 0.0 0.0 0.00 0.84 0.00 71 1013.2
20260510193021 19 193 0.0 0.0 0.00 0.91 0.00 71 1013.2
20260510191533 20 230 0.0 8.0 0.00 1.14 0.00 70 1013.1
20260510190035 20 257 0.0 4.8 0.00 1.88 0.00 69 1013.1
20260510184528 20 205 0.0 4.8 0.00 2.16 0.00 68 1013.2
20260510183028 20 146 0.0 11.3 0.00 2.18 0.00 67 1013.2
20260510181516 21 263 0.0 6.4 0.00 2.18 0.00 66 1013.2
20260510180023 21 249 0.0 6.4 0.00 2.18 0.00 68 1013.2
20260510174526 21 209 0.0 11.3 0.00 2.18 0.00 66 1013.5
20260510173027 20 237 0.0 8.0 0.00 2.18 0.00 67 1013.1
20260510171538 20 348 0.0 9.7 0.00 2.18 0.00 69 1013.0
20260510170021 19 215 0.0 6.4 0.00 2.18 0.00 72 1013.3
20260510164522 19 176 0.0 9.7 0.00 2.18 0.00 73 1013.4
20260510163026 19 237 0.0 6.4 0.00 2.18 0.00 75 1013.4
20260510161528 18 209 0.0 0.0 0.00 2.18 0.00 78 1013.5
20260510160032 17 226 0.0 0.0 0.00 2.18 0.00 81 1013.4
20260510154530 17 52 0.0 0.0 0.00 2.18 0.00 77 1013.6
20260510153036 17 246 0.0 8.0 0.00 2.18 0.00 80 1013.7
20260510151528 17 244 0.0 0.0 0.00 2.18 0.00 80 1013.7
20260510150027 16 223 0.0 6.4 0.00 2.18 0.00 83 1013.7
20260510144530 16 163 0.0 1.6 0.00 2.18 0.00 86 1013.6
20260510143024 15 257 0.0 0.0 0.00 2.18 0.00 91 1013.4
20260510141526 13 232 0.0 0.0 0.00 2.18 0.00 93 1013.6
20260510140008 13 226 0.0 0.0 0.00 2.18 0.00 94 1013.7
20260510134514 12 223 0.0 0.0 0.00 2.18 0.00 94 1013.5
20260510133018 12 223 0.0 0.0 0.00 2.18 0.00 94 1013.3
20260510131521 12 223 0.0 0.0 0.00 2.18 0.00 94 1013.5
20260510130027 11 223 0.0 0.0 0.00 2.18 0.00 94 1013.5
20260510124521 11 223 0.0 0.0 0.00 2.18 0.00 94 1013.4
20260510123017 11 223 0.0 0.0 0.00 2.18 0.00 95 1013.2
20260510121520 11 223 0.0 0.0 0.00 2.18 0.00 95 1013.2
20260510120026 11 222 0.0 0.0 0.00 2.18 0.00 95 1012.8
20260510114528 10 222 0.0 0.0 0.00 2.18 0.00 95 1012.7
20260510113011 10 222 0.0 0.0 0.00 2.18 0.00 94 1012.6
20260510111519 10 223 0.0 0.0 0.00 2.18 0.00 94 1012.5
20260510110038 10 223 0.0 0.0 0.00 2.18 0.00 94 1012.5
20260510104531 10 223 0.0 0.0 0.00 2.18 0.00 94 1012.6
20260510103030 10 223 0.0 0.0 0.00 2.18 0.00 94 1012.4
20260510101514 10 233 0.0 0.0 0.00 2.18 0.00 94 1012.1
20260510100019 10 325 0.0 0.0 0.00 2.18 0.00 94 1012.0
20260510094535 10 325 0.0 0.0 0.00 2.18 0.00 94 1012.4
20260510093027 10 325 0.0 0.0 0.00 2.18 0.00 94 1012.4
20260510091527 10 325 0.0 0.0 0.00 2.18 0.00 94 1012.2
20260510090028 10 325 0.0 0.0 0.00 2.18 0.00 94 1012.5
20260510084524 10 325 0.0 0.0 0.00 2.18 0.00 94 1012.5
20260510083004 10 325 0.0 0.0 0.00 2.21 0.00 94 1012.5
20260510081508 10 324 0.0 0.0 0.00 2.21 0.00 94 1012.5
20260510080032 10 203 0.0 0.0 0.00 2.24 0.00 94 1012.2
20260510074519 10 202 0.0 0.0 0.00 2.24 0.00 94 1012.0
20260510073037 10 202 0.0 0.0 0.00 2.24 0.00 94 1012.0
20260510071508 10 202 0.0 0.0 0.00 2.24 0.00 94 1012.0
20260510070009 10 202 0.0 0.0 0.00 2.24 0.00 94 1012.1
20260510064515 10 203 0.0 0.0 0.00 2.24 0.00 94 1012.1
20260510063020 10 203 0.0 0.0 0.00 2.24 0.00 94 1012.2
20260510061526 10 203 0.0 0.0 0.00 2.24 0.00 94 1011.8
20260510060018 10 203 0.0 0.0 0.00 2.24 0.00 94 1011.6
20260510054511 10 203 0.0 0.0 0.00 2.24 0.00 94 1011.8
20260510053015 10 203 0.0 0.0 0.00 2.24 0.00 94 1011.9
20260510051517 10 203 0.0 0.0 0.00 2.24 0.00 94 1012.0
20260510050026 10 203 0.0 0.0 0.00 2.24 0.00 94 1011.9
20260510044505 10 203 0.0 0.0 0.00 2.24 0.00 94 1011.9
20260510043012 10 203 0.0 0.0 0.00 2.24 0.00 94 1011.9
20260510041522 10 203 0.0 0.0 0.00 2.24 0.00 94 1011.9
20260510040023 11 203 0.0 0.0 0.00 2.24 0.00 94 1011.5
20260510034527 11 203 0.0 0.0 0.00 2.24 2.24 94 1011.6
20260510033042 11 203 0.0 0.0 0.00 2.24 2.24 93 1011.6
20260510031517 11 202 0.0 0.0 0.00 2.24 2.24 93 1011.9
20260510030017 11 202 0.0 0.0 0.00 2.24 2.24 93 1011.9
20260510024526 11 202 0.0 0.0 0.00 2.24 2.24 93 1011.8
20260510023029 11 202 0.0 0.0 0.00 2.24 2.24 93 1011.8
20260510021606 11 202 0.0 0.0 0.00 2.24 2.24 93 1011.6
20260510020016 11 200 0.0 0.0 0.00 2.24 2.24 93 1011.6
20260510014533 11 200 0.0 0.0 0.00 2.24 2.24 93 1011.8
20260510013028 11 200 0.0 0.0 0.00 2.24 2.24 93 1011.8
20260510011526 11 200 0.0 0.0 0.00 2.24 2.24 93 1011.5
20260510010037 11 200 0.0 0.0 0.00 2.24 2.24 93 1011.3
20260510004518 11 200 0.0 0.0 0.00 2.24 2.24 93 1011.2
20260510003025 11 199 0.0 0.0 0.00 2.24 2.24 93 1011.1
20260510001524 11 200 0.0 0.0 0.00 2.24 2.24 93 1011.0
20260510000028 11 200 0.0 0.0 0.00 2.24 2.24 93 1011.1
20260509234528 11 200 0.0 0.0 0.08 2.24 2.24 93 1011.1
20260509233018 11 200 0.0 0.0 0.18 2.24 2.24 92 1011.2
20260509231520 11 200 0.0 0.0 0.30 2.24 2.24 92 1011.2
20260509230034 11 200 0.0 0.0 0.38 2.24 2.24 92 1011.4